[[{"header":{"parameterUnit":"m.s-1","parameterCategory":1,"la1":30.2991,"la2":30.254,"lo1":-89.0895,"lo2":-89.0444,"dy":0.0017,"dx":0.0017,"nx":28,"ny":28,"refTime":"2023-09-18T09:00:00:Z","depth":0,"parameterNumber":2,"parameterNumberName":"U-component_of_WINDS"},"data":[0,0,0,0,0,0,0,0,0,0,0,0,0,0,0,0,0,0,0,0,0,0,0,0,0,0,0,0,0,0,0,0,0,0,0,0,0,0,0,0,0,0,0,0,0,0,0,0,0,0,0,0,0,0,0,0,0,0,-4.8908,-4.8908,0,-4.8938,-4.8938,-4.8938,-4.891,-4.8909,-4.8908,-4.8907,-4.8933,-4.8934,-4.8936,0,0,0,0,0,0,0,0,0,0,0,0,0,-4.8823,-4.8825,-4.8908,-4.8909,-4.8909,-4.8938,-4.8938,-4.8939,-4.891,-4.8909,-4.8907,-4.8906,-4.8932,-4.8934,-4.8936,0,0,0,0,0,0,0,0,0,0,0,0,0,-4.8857,-4.8825,-4.8908,-4.8898,-4.8898,-4.8938,-4.8938,-4.8939,-4.891,-4.8909,-4.8907,-4.8905,-4.8931,-4.8934,-4.8936,-4.8986,0,0,-4.8944,-4.8946,0,0,0,0,0,0,0,0,-4.8855,-4.886,-4.8899,-4.8899,-4.8898,-4.8919,-4.8918,-4.8954,-4.8911,-4.8905,-4.8907,-4.8905,-4.8929,-4.8932,-4.8941,-4.8988,-4.8989,-4.8945,-4.8946,-4.8947,-4.8948,0,0,0,0,0,0,0,-4.8853,-4.8859,-4.892,-4.89,-4.8899,-4.8891,-4.8894,-4.8925,-4.8926,-4.8906,-4.8904,-4.8908,-4.8928,-4.8938,-4.8941,-4.8989,-4.8945,-4.8947,-4.8949,-4.895,-4.9077,-4.9079,0,0,0,0,0,0,-4.8852,-4.8857,-4.8919,-4.8921,-4.8872,-4.8894,-4.8897,-4.8914,-4.8926,-4.8926,-4.8909,-4.8906,-4.8935,-4.8938,-4.8942,-4.9,-4.8947,-4.895,-4.8951,-4.9076,-4.9078,-4.908,0,0,0,0,0,0,-4.885,-4.8858,-4.8918,-4.8888,-4.8895,-4.8897,-4.8916,-4.8915,-4.8925,-4.8929,-4.8928,-4.8919,-4.8934,-4.8938,-4.8976,-4.9,-4.8951,-4.8953,-4.9073,-4.9076,-4.9079,-4.9117,0,0,0,0,0,0,-4.8848,-4.8857,-4.8877,-4.8889,-4.8897,-4.8952,-4.8918,-4.8917,-4.893,-4.8927,-4.8938,-4.8938,-4.8933,-4.8972,-4.8978,-4.9003,-4.8955,-4.9071,-4.9075,-4.9078,-4.9113,-4.9121,-4.9127,0,0,0,0,0,-4.8845,-4.8886,-4.8878,-4.8886,-4.8922,-4.8953,-4.8958,-4.8952,-4.8932,-4.8951,-4.8954,-4.8938,-4.8998,-4.8976,-4.8983,-4.9009,-4.9069,-4.9074,-4.9078,-4.911,-4.9119,-4.9127,0,0,0,0,0,0,-4.8874,-4.8887,-4.8879,-4.8925,-4.8939,-4.8948,-4.8972,-4.8961,-4.8979,-4.8975,-4.8966,-4.8969,-4.9008,-4.9013,-4.8988,-4.9058,-4.903,-4.9036,-4.9053,-4.9061,-4.9068,-4.9064,-4.8958,0,0,0,0,0,-4.8887,-4.8913,-4.8922,-4.8961,-4.8969,-4.897,-4.8983,-4.8978,-4.8991,-4.8996,-4.9001,-4.9013,-4.9034,-4.9048,-4.9069,-4.9115,-4.9116,-4.9137,-4.9143,-4.9149,-4.9153,-4.9177,-4.9185,-4.9093,-4.9093,-4.9093,0,0,-4.8911,-4.8922,-4.8938,-4.8968,-4.8978,-4.9003,-4.8974,-4.9003,-4.9021,-4.9,-4.9035,-4.904,-4.9052,-4.9095,-4.9113,-4.9099,-4.9179,-4.9154,-4.9159,-4.9159,-4.9182,-4.9191,-4.9198,-4.9096,-4.9096,-4.9095,0,0,-4.8969,-4.898,-4.9014,-4.9025,-4.9041,-4.9042,-4.905,-4.9063,-4.9065,-4.9101,-4.9085,-4.9107,-4.9144,-4.9154,-4.9164,-4.9227,-4.9213,-4.9234,-4.9268,-4.9292,-4.9299,-4.9305,-4.9326,-4.9333,-4.9239,-4.9239,-4.9239,0,-4.8996,-4.9036,-4.9032,-4.9062,-4.9075,-4.9059,-4.9093,-4.9103,-4.9125,-4.9133,-4.9118,-4.9165,-4.9173,-4.9216,-4.9232,-4.9242,-4.9249,-4.9231,-4.9298,-4.9305,-4.931,-4.933,-4.9338,-4.9241,-4.9241,-4.9241,-4.9241,0,-4.9068,-4.9096,-4.9121,-4.9144,-4.916,-4.9192,-4.9192,-4.9208,-4.9203,-4.9204,-4.9241,-4.925,-4.9271,-4.9282,-4.9276,-4.9325,-4.9316,-4.93,-4.9271,-4.9322,-4.934,-4.9347,-4.9245,-4.9244,-4.9243,-4.9243,0,0,-4.9142,-4.9164,-4.9173,-4.9183,-4.9201,-4.9222,-4.9253,-4.9275,-4.9289,-4.9305,-4.9329,-4.9362,-4.9348,-4.9359,-4.9354,-4.9375,-4.9423,-4.9357,-4.9357,-4.9367,-4.9475,-4.9485,-4.9494,-4.9415,-4.9416,-4.9418,-4.9474,0,-4.9198,-4.9253,-4.9251,-4.9301,-4.9326,-4.9313,-4.934,-4.9353,-4.9356,-4.9376,-4.9379,-4.9402,-4.9383,-4.939,-4.941,-4.9413,-4.9444,-4.9409,-4.9435,-4.9436,-4.9429,-4.9504,-4.9514,-4.9566,-4.9481,-4.9482,-4.9483,0,-4.927,-4.929,-4.9343,-4.9358,-4.9368,-4.9393,-4.9413,-4.9434,-4.9448,-4.9449,-4.9463,-4.9455,-4.9485,-4.9459,-4.9499,-4.9475,-4.9486,-4.9489,-4.9491,-4.949,-4.946,-4.9503,-4.9583,-4.959,-4.9495,-4.9494,-4.9493,0,-4.9316,-4.9356,-4.9393,-4.9403,-4.9421,-4.9438,-4.9446,-4.946,-4.9474,-4.9492,-4.95,-4.9521,-4.9532,-4.9548,-4.9545,-4.9527,-4.9586,-4.9559,-4.9585,-4.9585,-4.9595,-4.9594,-4.9676,-4.9607,-4.9607,-4.9607,-4.9607,0,-4.9377,-4.9409,-4.9414,-4.9436,-4.9472,-4.947,-4.9505,-4.9512,-4.9524,-4.9546,-4.9537,-4.9557,-4.9554,-4.9575,-4.9574,-4.9606,-4.9612,-4.9612,-4.961,-4.9611,-4.961,-4.9615,-4.9611,-4.9609,-4.9609,-4.9608,-4.9608,0,-4.9432,-4.9437,-4.9476,-4.9492,-4.9496,-4.9522,-4.9534,-4.9555,-4.9558,-4.9587,-4.9593,-4.9598,-4.9622,-4.9622,-4.9649,-4.9648,-4.9687,-4.9683,-4.9682,-4.968,-4.9705,-4.9702,-4.9791,-4.9801,-4.9729,-4.9729,-4.973,0,-4.9469,-4.9494,-4.9513,-4.9528,-4.9538,-4.9563,-4.9577,-4.9577,-4.9593,-4.9612,-4.963,-4.9654,-4.9672,-4.9711,-4.9716,-4.9736,-4.9731,-4.9761,-4.9733,-4.9733,-4.9728,-4.9726,-4.9727,-4.9765,-4.9765,-4.9766,-4.9767,0,-4.9534,-4.9536,-4.9558,-4.9582,-4.96,-4.9619,-4.9635,-4.9648,-4.965,-4.9667,-4.9693,-4.9707,-4.9736,-4.9759,-4.9779,-4.9786,-4.9776,-4.9776,-4.9782,-4.9782,-4.9779,-4.9779,-4.9694,-4.9773,-4.9772,-4.9772,-4.9771,-4.9771,-4.958,-4.9601,-4.9618,-4.9644,-4.9657,-4.9673,-4.9693,-4.9701,-4.9722,-4.9746,-4.9745,-4.9773,-4.9787,-4.9813,-4.9823,-4.9843,-4.9832,-4.9843,-4.9845,-4.9846,-4.9848,-4.9779,-4.9847,-4.9847,-4.9847,-4.9847,-4.9846,0,-4.9642,-4.9653,-4.9677,-4.9702,-4.9722,-4.9714,-4.9733,-4.9749,-4.9774,-4.9789,-4.9808,-4.9837,-4.986,-4.9868,-4.9889,-4.9904,-4.99,-4.9909,-4.9907,-4.9908,-4.9857,-4.9848,-4.9912,-4.9912,-4.9912,-4.9912,-4.9912,-4.9912,-4.9677,-4.9712,-4.9716,-4.9758,-4.9769,-4.9797,-4.9808,-4.9823,-4.9835,-4.9868,-4.9887,-4.9893,-4.9905,-4.9928,-4.9948,-4.9949,-4.9956,-4.9967,-4.9967,-4.9918,-4.9912,-4.9905,-4.9897,-4.997,-4.997,-5.0015,-5.0016,-5.0016]},{"header":{"parameterUnit":"m.s-1","parameterCategory":1,"la1":30.2991,"la2":30.254,"lo1":-89.0895,"lo2":-89.0444,"dy":0.0017,"dx":0.0017,"nx":28,"ny":28,"refTime":"2023-09-18T09:00:00:Z","depth":0,"parameterNumber":3,"parameterNumberName":"V-component_of_WINDS"},"data":[0,0,0,0,0,0,0,0,0,0,0,0,0,0,0,0,0,0,0,0,0,0,0,0,0,0,0,0,0,0,0,0,0,0,0,0,0,0,0,0,0,0,0,0,0,0,0,0,0,0,0,0,0,0,0,0,0,0,0.0427,0.0428,0,0.0496,0.0497,0.0498,0.0543,0.0543,0.0544,0.0544,0.0614,0.0616,0.0617,0,0,0,0,0,0,0,0,0,0,0,0,0,0.0336,0.0337,0.0427,0.0428,0.0428,0.0496,0.0497,0.0498,0.0543,0.0543,0.0544,0.0544,0.0614,0.0615,0.0617,0,0,0,0,0,0,0,0,0,0,0,0,0,0.0387,0.0338,0.0427,0.0459,0.0463,0.0496,0.0497,0.0498,0.0543,0.0543,0.0544,0.0544,0.0613,0.0615,0.0618,0.0623,0,0,0.0625,0.0626,0,0,0,0,0,0,0,0,0.0384,0.039,0.0453,0.0457,0.0461,0.0511,0.0491,0.054,0.0543,0.0512,0.0544,0.0544,0.058,0.0585,0.0597,0.0627,0.063,0.0625,0.0627,0.0628,0.0628,0,0,0,0,0,0,0,0.038,0.0388,0.0454,0.0454,0.0459,0.0471,0.0479,0.05,0.0543,0.0515,0.0519,0.0526,0.0582,0.0594,0.0599,0.0631,0.0625,0.0627,0.0629,0.063,0.0673,0.0673,0,0,0,0,0,0,0.0372,0.0384,0.0452,0.0456,0.0423,0.0472,0.0481,0.0495,0.0542,0.055,0.0526,0.0528,0.059,0.0596,0.0601,0.0614,0.0628,0.063,0.0631,0.0673,0.0673,0.0673,0,0,0,0,0,0,0.037,0.0377,0.0449,0.0421,0.0431,0.0473,0.0488,0.0496,0.0508,0.0551,0.0558,0.0531,0.0591,0.0598,0.0619,0.0616,0.0631,0.0633,0.0674,0.0673,0.0673,0.0636,0,0,0,0,0,0,0.0367,0.0376,0.0378,0.0421,0.0433,0.0464,0.0488,0.0497,0.0513,0.0516,0.0557,0.0564,0.0591,0.0615,0.0621,0.062,0.0635,0.0674,0.0673,0.0673,0.0638,0.0635,0.0632,0,0,0,0,0,0.0363,0.0364,0.0378,0.0386,0.0436,0.0464,0.0471,0.0502,0.0512,0.0515,0.0543,0.0563,0.0616,0.0616,0.0624,0.0624,0.0674,0.0674,0.0673,0.0639,0.0635,0.0632,0,0,0,0,0,0,0.0318,0.037,0.0386,0.04,0.0428,0.0472,0.0476,0.0496,0.0521,0.0523,0.0561,0.057,0.0587,0.0608,0.0607,0.0634,0.0648,0.0648,0.0619,0.0616,0.0613,0.0608,0.0637,0,0,0,0,0,0.0311,0.0329,0.0373,0.0382,0.0395,0.0433,0.0446,0.0469,0.0498,0.051,0.0539,0.0567,0.059,0.0604,0.0628,0.0642,0.0652,0.0645,0.0642,0.064,0.064,0.0652,0.065,0.0671,0.0671,0.0671,0,0,0.0294,0.0324,0.0333,0.0374,0.0397,0.0416,0.0442,0.046,0.0475,0.0512,0.0534,0.0557,0.0591,0.0609,0.0618,0.0626,0.0637,0.0639,0.0636,0.0638,0.0651,0.0649,0.0647,0.067,0.067,0.067,0,0,0.0273,0.0297,0.0309,0.0333,0.0369,0.0395,0.0398,0.0439,0.0456,0.0479,0.0508,0.0527,0.0565,0.0589,0.0606,0.0599,0.062,0.0606,0.059,0.0601,0.0599,0.0598,0.0597,0.0596,0.0606,0.0606,0.0606,0,0.0248,0.0277,0.0312,0.0329,0.0347,0.0383,0.0396,0.0417,0.0459,0.0471,0.048,0.0531,0.0557,0.0582,0.0581,0.0593,0.0599,0.0601,0.0597,0.0596,0.0595,0.0595,0.0594,0.0604,0.0604,0.0604,0.0605,0,0.0245,0.0265,0.027,0.0311,0.033,0.0345,0.0383,0.0398,0.0419,0.0445,0.0469,0.0501,0.0533,0.0541,0.0561,0.057,0.0575,0.059,0.0605,0.0591,0.0591,0.0591,0.0601,0.0602,0.0603,0.0603,0,0,0.0196,0.0258,0.0259,0.028,0.0324,0.0341,0.0359,0.0391,0.0404,0.0432,0.0449,0.0483,0.0498,0.0518,0.0542,0.0551,0.0546,0.0566,0.0567,0.0562,0.0561,0.055,0.0549,0.0561,0.0561,0.0561,0.0559,0,0.0183,0.0216,0.025,0.0272,0.0292,0.0329,0.0345,0.0374,0.0399,0.0421,0.045,0.0474,0.0491,0.0503,0.0515,0.0544,0.0547,0.0545,0.0578,0.0579,0.0568,0.0549,0.0536,0.0532,0.0559,0.0559,0.0559,0,0.0171,0.02,0.0224,0.0269,0.0279,0.0293,0.0327,0.0347,0.0382,0.04,0.0424,0.045,0.0473,0.0486,0.0518,0.0516,0.0532,0.0549,0.055,0.0554,0.0568,0.0553,0.0532,0.0531,0.0559,0.0559,0.0559,0,0.0135,0.0179,0.02,0.0216,0.0269,0.0278,0.0301,0.0337,0.0355,0.0385,0.0398,0.043,0.0447,0.0472,0.0507,0.0513,0.0537,0.0552,0.0553,0.0552,0.0556,0.0555,0.0537,0.0565,0.0565,0.0565,0.0565,0,0.0117,0.013,0.0185,0.0198,0.0216,0.0255,0.0271,0.0297,0.033,0.0349,0.0383,0.04,0.0445,0.0469,0.0496,0.052,0.0528,0.0544,0.0551,0.0541,0.0539,0.0552,0.0553,0.0565,0.0565,0.0565,0.0565,0,0.0078,0.0115,0.0141,0.019,0.0203,0.0214,0.0256,0.0271,0.03,0.0324,0.0333,0.0377,0.0407,0.0445,0.0486,0.0505,0.0527,0.0537,0.0515,0.0519,0.0518,0.0518,0.0508,0.0509,0.0536,0.0535,0.0535,0,0.0064,0.0076,0.0127,0.0143,0.0165,0.019,0.021,0.025,0.0269,0.0312,0.0323,0.0356,0.0384,0.0431,0.0467,0.05,0.0512,0.0507,0.0517,0.0508,0.0514,0.0513,0.0515,0.0503,0.0503,0.0502,0.0502,0,0.0036,0.0055,0.0082,0.0116,0.0139,0.0168,0.0198,0.0209,0.0256,0.0276,0.0308,0.033,0.0374,0.0407,0.0446,0.047,0.0494,0.0499,0.0501,0.0491,0.0478,0.0487,0.0508,0.0499,0.0499,0.0499,0.0499,0.05,0.0011,0.0024,0.0063,0.0093,0.012,0.0149,0.0166,0.0198,0.0225,0.0264,0.0287,0.0318,0.0357,0.0411,0.0435,0.0461,0.0469,0.0472,0.0473,0.0473,0.0471,0.0474,0.0468,0.0468,0.0468,0.0468,0.0468,0,-0.0014,0.0013,0.004,0.0083,0.0107,0.0129,0.0164,0.0183,0.0211,0.0245,0.0273,0.0311,0.0344,0.0384,0.042,0.0434,0.0446,0.0442,0.0441,0.0447,0.046,0.0455,0.0432,0.0432,0.0432,0.0432,0.0432,0.0432,-0.0025,-0.0,0.0024,0.0063,0.0091,0.0123,0.0141,0.0169,0.0196,0.0237,0.0265,0.0292,0.0329,0.0369,0.0401,0.0412,0.0424,0.0417,0.0431,0.0443,0.0446,0.0449,0.0444,0.0419,0.0419,0.0416,0.0416,0.0416]}]]